Location: SE Lincoln, NE
(40.7805°N, 96.6275°W)
Time: 03:42:34
(UTC-05:00)

Cosmos 1833 Rocket - Pass Details

Date: 15 May 2021
Orbit: 831 x 841 km, 71.0° (Epoch: 24 June)

Event Time Altitude Azimuth Distance (km) Brightness Sun altitude
Rises 21:37:21 0° 339° (NNW) 3,404 6.9 -10.5°
Reaches altitude 10° 21:39:51 10° 342° (NNW) 2,465 6.0 -10.9°
Maximum altitude 21:45:28 64° 64° (ENE) 931 2.8 -11.7°
Enters shadow 21:49:59 16° 143° (SE) 2,062 4.1 -12.4°
